Simultaneous Nadir Overpasses (SNOs) Predictions

Prediction of SNOs between NPP and TERRA Satellite Orbit:

Table of predicted SNOs for the next 14.0 days since TLE Epoch: 6/29/2024
Index Date (NPP) Time (NPP) Lat,Lon (NPP) SZA (NPP ) Date (TERRA) Time (TERRA) Lat,Lon (TERRA) SZA (TERRA ) Distance(km) Time Diff (sec)
1 06/30/2024 21:46:27 -72.37, 25.92 130.59 06/30/2024 21:47:29 -72.39, 25.97 130.59 3.03 62
2 06/30/2024 22:37:11 72.26,-166.55 49.29 06/30/2024 22:36:51 72.25,-166.61 49.29 2.20 20
3 07/03/2024 09:49:42 72.34, 25.16 49.58 07/03/2024 09:50:01 72.34, 25.20 49.56 1.88 19
4 07/03/2024 10:40:24 -72.25,-167.35 130.52 07/03/2024 10:39:25 -72.26,-167.27 130.50 2.94 59
5 07/05/2024 21:02:12 72.39,-143.06 49.87 07/05/2024 21:03:11 72.38,-143.05 49.84 1.03 59
6 07/05/2024 21:52:53 -72.30, 24.44 130.23 07/05/2024 21:52:34 -72.31, 24.48 130.23 1.51 19
7 07/08/2024 09:05:23 -72.35,-143.79 129.90 07/08/2024 09:05:43 -72.36,-143.75 129.90 1.86 20
8 07/08/2024 09:56:07 72.24, 23.74 49.99 07/08/2024 09:55:05 72.22, 23.67 49.99 2.86 62
9 07/10/2024 20:17:53 -72.41, 47.96 129.51 07/10/2024 20:18:52 -72.38, 47.96 129.56 3.59 59
10 07/10/2024 21:08:37 72.30,-144.51 50.37 07/10/2024 21:08:13 72.30,-144.52 50.37 0.76 24



Historial Predications of SNOs between NPP and TERRA
